FW7847 Weather Reports


time (UTC)temp
F
wind
direction
speed
knots
gust
knots
rain 1hr
in
rain 24hr
in
rain mn
in
humidity
%
barometer
mb
20260509011543 53 225 0.0 0.0 0.00 0.00 0.00 55 1008.4
20260509011040 54 225 0.0 0.0 0.00 0.00 0.00 55 1008.6
20260509010538 55 225 0.0 0.0 0.00 0.00 0.00 53 1008.3
20260509010034 55 228 0.0 0.0 0.00 0.00 0.00 51 1008.4
20260509005532 55 225 0.0 0.0 0.00 0.00 0.00 51 1008.4
20260509005032 56 224 0.0 0.0 0.00 0.00 0.00 50 1008.1
20260509004529 57 223 0.0 0.0 0.00 0.00 0.00 50 1008.2
20260509004026 58 230 0.0 0.0 0.00 0.00 0.00 48 1008.2
20260509003525 59 229 0.0 0.0 0.00 0.00 0.00 46 1008.1
20260509003021 59 229 1.7 2.6 0.00 0.00 0.00 45 1008.2
20260509002519 59 230 0.0 1.7 0.00 0.00 0.00 44 1008.0
20260509002016 60 208 1.7 2.6 0.00 0.00 0.00 46 1008.0
20260509001514 60 228 0.0 1.7 0.00 0.00 0.00 43 1007.9
20260509001009 61 229 0.0 2.6 0.00 0.00 0.00 43 1008.0
20260509000508 61 257 0.9 1.7 0.00 0.00 0.00 43 1008.0
20260509000003 62 229 0.0 4.3 0.00 0.00 0.00 41 1007.9
20260508235502 62 233 1.7 2.6 0.00 0.00 0.00 41 1008.0
20260508234957 62 224 1.7 6.1 0.00 0.00 0.00 40 1007.9
20260508234455 62 236 0.0 0.0 0.00 0.00 0.00 40 1008.0
20260508233952 62 252 2.6 13.0 0.00 0.00 0.00 41 1007.8
20260508233452 63 307 2.6 4.3 0.00 0.00 0.00 39 1007.8
20260508232948 63 228 1.7 6.1 0.00 0.00 0.00 39 1007.8
20260508232445 63 179 0.9 4.3 0.00 0.00 0.00 39 1008.0
20260508231942 63 295 6.1 8.7 0.00 0.00 0.00 39 1007.7
20260508231439 63 242 3.5 6.1 0.00 0.00 0.00 38 1007.8
20260508230936 64 232 0.9 4.3 0.00 0.00 0.00 37 1008.0
20260508230432 64 227 6.1 14.8 0.00 0.00 0.00 37 1007.8
20260508225929 64 265 6.1 12.2 0.00 0.00 0.00 37 1007.9
20260508225426 65 258 4.3 6.1 0.00 0.00 0.00 37 1007.8
20260508224924 65 230 0.0 6.1 0.00 0.00 0.00 37 1007.9
20260508224422 64 348 3.5 12.2 0.00 0.00 0.00 37 1008.0
20260508223919 65 300 5.2 12.2 0.00 0.00 0.00 37 1007.9
20260508223417 65 246 2.6 2.6 0.00 0.00 0.00 37 1008.0
20260508222914 64 287 7.8 12.2 0.00 0.00 0.00 36 1008.0
20260508222411 64 244 2.6 16.5 0.00 0.00 0.00 38 1008.0
20260508221907 64 267 4.3 10.4 0.00 0.00 0.00 39 1008.1
20260508221403 64 228 0.0 6.1 0.00 0.00 0.00 38 1007.9
20260508220859 64 239 1.7 8.7 0.00 0.00 0.00 39 1008.0
20260508220356 64 218 1.7 4.3 0.00 0.00 0.00 38 1008.2
20260508215852 63 275 2.6 8.7 0.00 0.00 0.00 39 1008.4
20260508215349 64 239 6.1 10.4 0.00 0.00 0.00 37 1008.3
20260508214846 64 214 2.6 7.8 0.00 0.00 0.00 38 1008.1
20260508214344 63 242 4.3 10.4 0.00 0.00 0.00 38 1008.5
20260508213840 64 243 5.2 8.7 0.00 0.00 0.00 36 1008.3
20260508213337 65 343 8.7 12.2 0.00 0.00 0.00 36 1008.4
20260508212832 64 314 12.2 18.2 0.00 0.00 0.00 36 1008.2
20260508212329 65 278 7.8 10.4 0.00 0.00 0.00 36 1008.5
20260508211825 64 262 2.6 8.7 0.00 0.00 0.00 36 1008.3
20260508211321 65 313 4.3 7.8 0.00 0.00 0.00 35 1008.4
20260508210819 64 213 5.2 10.4 0.00 0.00 0.00 37 1008.3
20260508210315 63 209 6.1 7.8 0.00 0.00 0.00 39 1008.5
20260508205812 63 193 4.3 4.3 0.00 0.00 0.00 38 1008.5
20260508205308 64 241 4.3 7.8 0.00 0.00 0.00 39 1008.5
20260508204805 64 275 2.6 8.7 0.00 0.00 0.00 38 1008.6
20260508204302 63 211 3.5 6.1 0.00 0.00 0.00 40 1008.6
20260508203758 63 236 3.5 18.2 0.00 0.00 0.00 39 1008.7
20260508203254 65 241 2.6 7.8 0.00 0.00 0.00 38 1008.7
20260508202750 62 242 1.7 10.4 0.00 0.00 0.00 37 1008.7
20260508202247 62 267 2.6 8.7 0.00 0.00 0.00 39 1009.1
20260508201744 64 266 0.9 10.4 0.00 0.00 0.00 39 1009.0
20260508201241 64 146 9.6 12.2 0.00 0.00 0.00 38 1009.0
20260508200738 63 286 6.1 12.2 0.00 0.00 0.00 38 1009.0
20260508200234 64 259 5.2 7.8 0.00 0.00 0.00 36 1009.3
20260508195730 64 278 7.8 13.0 0.00 0.00 0.00 36 1009.5
20260508195227 64 227 5.2 10.4 0.00 0.00 0.00 35 1009.3
20260508194724 63 215 7.8 14.8 0.00 0.00 0.00 35 1009.8
20260508194220 63 321 8.7 10.4 0.00 0.00 0.00 36 1009.7
20260508193717 62 245 0.9 7.8 0.00 0.00 0.00 38 1009.8
20260508193214 63 231 4.3 10.4 0.00 0.00 0.00 37 1009.8
20260508192710 62 205 5.2 14.8 0.00 0.00 0.00 36 1009.8
20260508192208 63 273 5.2 10.4 0.00 0.00 0.00 35 1010.2
20260508191705 62 328 9.6 13.0 0.00 0.00 0.00 37 1009.5
20260508191201 62 256 5.2 18.2 0.00 0.00 0.00 36 1010.1
20260508190659 62 256 5.2 7.8 0.00 0.00 0.00 36 1010.2
20260508190155 62 234 1.7 8.7 0.00 0.00 0.00 37 1010.5
20260508185652 61 304 8.7 13.0 0.00 0.00 0.00 36 1010.3
20260508185149 61 250 5.2 13.0 0.00 0.00 0.00 38 1010.4
20260508184646 62 205 4.3 12.2 0.00 0.00 0.00 36 1010.1
20260508184144 62 242 7.8 14.8 0.00 0.00 0.00 37 1010.5
20260508183640 62 216 7.8 12.2 0.00 0.00 0.00 35 1010.3
20260508183136 61 239 3.5 10.4 0.00 0.00 0.00 36 1010.6
20260508182632 60 173 3.5 4.3 0.00 0.00 0.00 38 1010.6
20260508182129 61 269 7.8 13.0 0.00 0.00 0.00 37 1010.8
20260508181624 61 208 4.3 12.2 0.00 0.00 0.00 39 1010.8
20260508181122 60 191 7.8 13.0 0.00 0.00 0.00 38 1010.8
20260508180619 60 297 13.0 23.5 0.00 0.00 0.00 39 1010.8
20260508180115 61 230 1.7 7.8 0.00 0.00 0.00 41 1010.9
20260508175612 60 222 2.6 7.8 0.00 0.00 0.00 39 1010.9
20260508175109 59 229 1.7 10.4 0.00 0.00 0.00 38 1011.0
20260508174607 60 316 6.1 12.2 0.00 0.00 0.00 38 1011.2
20260508174103 60 207 2.6 8.7 0.00 0.00 0.00 38 1011.4
20260508173601 60 196 2.6 16.5 0.00 0.00 0.00 39 1011.5
20260508173056 58 78 1.7 7.8 0.00 0.00 0.00 42 1011.6
20260508172554 59 204 10.4 20.9 0.00 0.00 0.00 38 1011.7
20260508172050 60 256 6.1 16.5 0.00 0.00 0.00 41 1011.7
20260508171547 58 202 2.6 6.1 0.00 0.00 0.00 41 1011.5
20260508171043 59 291 4.3 18.2 0.00 0.00 0.00 39 1011.7
20260508170541 59 247 4.3 10.4 0.00 0.00 0.00 39 1011.9
20260508170038 58 324 9.6 12.2 0.00 0.00 0.00 39 1011.9
20260508165535 58 149 5.2 7.8 0.00 0.00 0.00 39 1011.9
20260508165032 59 230 13.0 14.8 0.00 0.00 0.00 39 1011.8
20260508164528 58 219 5.2 6.1 0.00 0.00 0.00 41 1012.1
20260508164025 56 207 2.6 8.7 0.00 0.00 0.00 42 1012.2
20260508163522 58 225 6.1 10.4 0.00 0.00 0.00 42 1012.4
20260508163019 57 319 1.7 7.8 0.00 0.00 0.00 42 1012.1
20260508162516 57 312 4.3 8.7 0.00 0.00 0.00 43 1012.4
20260508162013 57 343 9.6 12.2 0.00 0.00 0.00 46 1012.4
20260508161510 57 265 1.7 6.1 0.00 0.00 0.00 46 1012.6
20260508161007 58 245 3.5 7.8 0.00 0.00 0.00 45 1012.5
20260508160506 56 254 5.2 7.8 0.00 0.00 0.00 49 1012.6
20260508160002 56 263 5.2 7.8 0.00 0.00 0.00 50 1012.7
20260508155459 56 288 6.1 7.8 0.00 0.00 0.00 48 1012.6
20260508154955 57 230 0.0 10.4 0.00 0.00 0.00 49 1012.8
20260508154453 56 229 1.7 12.2 0.00 0.00 0.00 50 1012.7
20260508153950 56 288 1.7 6.1 0.00 0.00 0.00 47 1012.8
20260508153447 56 228 2.6 7.8 0.00 0.00 0.00 48 1012.7
20260508152943 56 236 4.3 4.3 0.00 0.00 0.00 48 1012.8
20260508152440 55 320 5.2 10.4 0.00 0.00 0.00 49 1012.8
20260508151936 54 242 4.3 10.4 0.00 0.00 0.00 51 1013.0
20260508151433 56 189 2.6 6.1 0.00 0.00 0.00 52 1012.8
20260508150929 56 232 0.0 13.0 0.00 0.00 0.00 50 1013.0
20260508150426 56 184 3.5 8.7 0.00 0.00 0.00 53 1013.1
20260508145922 54 257 2.6 6.1 0.00 0.00 0.00 56 1012.8
20260508145419 55 228 4.3 10.4 0.00 0.00 0.00 55 1013.1
20260508144915 55 235 2.6 6.1 0.00 0.00 0.00 55 1013.2
20260508144413 54 208 3.5 4.3 0.00 0.00 0.00 57 1013.2
20260508143910 54 86 4.3 6.1 0.00 0.00 0.00 58 1013.4
20260508143408 53 226 0.0 1.7 0.00 0.00 0.00 57 1013.2
20260508142904 53 284 0.9 1.7 0.00 0.00 0.00 58 1013.2
20260508142401 54 209 2.6 2.6 0.00 0.00 0.00 58 1013.3
20260508141857 52 200 2.6 2.6 0.00 0.00 0.00 58 1013.4
20260508141354 51 225 0.0 6.1 0.00 0.00 0.00 60 1013.2
20260508140852 53 259 7.0 7.8 0.00 0.00 0.00 61 1013.2
20260508140349 52 233 2.6 6.1 0.00 0.00 0.00 65 1013.5
20260508135844 51 216 1.7 4.3 0.00 0.00 0.00 69 1013.4
20260508135341 53 220 0.9 6.1 0.00 0.00 0.00 69 1013.5
20260508134837 52 200 0.9 2.6 0.00 0.00 0.00 71 1013.4
20260508134334 51 176 2.6 2.6 0.00 0.00 0.00 70 1013.4
20260508133831 51 198 1.7 2.6 0.00 0.00 0.00 75 1013.7
20260508133329 50 237 2.6 6.1 0.00 0.00 0.00 75 1013.7
20260508132826 50 217 1.7 4.3 0.00 0.00 0.00 76 1013.6
20260508132323 49 136 3.5 6.1 0.00 0.00 0.00 76 1013.5
20260508131820 49 200 1.7 1.7 0.00 0.00 0.00 78 1013.7
20260508131315 48 214 0.0 1.7 0.00 0.00 0.00 81 1013.6
20260508130812 48 212 2.6 4.3 0.00 0.00 0.00 81 1013.7
20260508130309 49 211 2.6 4.3 0.00 0.00 0.00 80 1013.6
20260508125805 48 178 2.6 2.6 0.00 0.00 0.00 78 1013.8
20260508125305 48 158 0.0 1.7 0.00 0.00 0.00 80 1013.5
20260508124800 47 219 0.0 1.7 0.00 0.00 0.00 82 1013.6
20260508124256 47 200 2.6 4.3 0.00 0.00 0.00 81 1013.5
20260508123755 46 223 0.0 1.7 0.00 0.00 0.00 83 1013.5
20260508123252 44 207 0.9 1.7 0.00 0.00 0.00 87 1013.4
20260508122748 43 186 0.0 4.3 0.00 0.00 0.00 90 1013.3
20260508122245 43 212 0.9 2.6 0.00 0.00 0.00 94 1013.3
20260508121743 42 229 0.0 1.7 0.00 0.00 0.00 96 1013.6
20260508121242 42 190 1.7 2.6 0.00 0.00 0.00 97 1013.2
20260508120738 42 185 1.7 2.6 0.00 0.00 0.00 97 1013.3
20260508120237 43 206 0.0 0.0 0.00 0.00 0.00 98 1013.2
20260508115734 42 215 0.0 0.0 0.00 0.00 0.00 98 1013.0
20260508115231 41 227 0.0 0.0 0.00 0.00 0.00 97 1013.2
20260508114727 40 231 0.0 0.0 0.00 0.00 0.00 97 1013.1
20260508114224 40 226 0.0 0.0 0.00 0.00 0.00 97 1013.1
20260508113721 39 226 0.0 0.0 0.00 0.00 0.00 97 1012.6
20260508113219 39 226 0.0 0.0 0.00 0.00 0.00 97 1012.7
20260508112715 39 226 0.0 0.0 0.00 0.00 0.00 97 1012.7
20260508112212 38 226 0.0 0.0 0.00 0.00 0.00 97 1012.6
20260508111709 37 223 0.0 0.0 0.00 0.00 0.00 97 1012.8
20260508111206 37 223 0.0 0.0 0.00 0.00 0.00 97 1012.6
20260508110704 37 222 0.0 0.0 0.00 0.00 0.00 97 1012.5
20260508110200 37 222 0.0 0.0 0.00 0.00 0.00 97 1012.6
20260508105700 37 222 0.0 0.0 0.00 0.00 0.00 97 1012.7
20260508105157 37 220 0.0 0.0 0.00 0.00 0.00 97 1012.4
20260508104655 36 222 0.0 0.0 0.00 0.00 0.00 97 1012.4
20260508104152 36 225 0.0 0.0 0.00 0.00 0.00 97 1012.6
20260508103649 36 223 0.0 0.0 0.00 0.00 0.00 97 1012.7
20260508103146 36 226 0.0 0.0 0.00 0.00 0.00 97 1012.3
20260508102643 36 226 0.0 0.0 0.00 0.00 0.00 97 1012.2
20260508102141 36 227 0.0 0.0 0.00 0.00 0.00 97 1012.7
20260508101638 36 228 0.0 0.0 0.00 0.00 0.00 97 1012.4
20260508101135 36 225 0.0 0.0 0.00 0.00 0.00 97 1012.6
20260508100633 36 226 0.0 0.0 0.00 0.00 0.00 97 1012.5
20260508100131 37 226 0.0 0.0 0.00 0.00 0.00 97 1012.5
20260508095627 37 222 0.0 0.0 0.00 0.00 0.00 97 1012.6
20260508095124 37 223 0.0 0.0 0.00 0.00 0.00 97 1012.6
20260508094621 37 220 0.0 0.0 0.00 0.00 0.00 97 1012.6
20260508094118 37 211 0.0 0.0 0.00 0.00 0.00 97 1012.3
20260508093615 37 221 0.0 0.0 0.00 0.00 0.00 97 1012.3
20260508093113 37 226 0.0 0.0 0.00 0.00 0.00 97 1012.5
20260508092609 37 222 0.0 0.0 0.00 0.00 0.00 97 1012.8
20260508092108 37 219 0.0 0.0 0.00 0.00 0.00 97 1012.5
20260508091605 38 218 0.0 0.0 0.00 0.00 0.00 97 1012.7
20260508091102 37 226 0.0 0.0 0.00 0.00 0.00 97 1012.5
20260508090600 38 227 0.0 0.0 0.00 0.00 0.00 97 1012.5
20260508090056 38 226 0.0 0.0 0.00 0.00 0.00 97 1012.5
20260508085553 38 222 0.0 0.0 0.00 0.00 0.00 97 1012.5
20260508085050 38 222 0.0 0.0 0.00 0.00 0.00 97 1012.7
20260508084547 39 222 0.0 1.7 0.00 0.00 0.00 97 1012.8
20260508084044 39 226 0.0 0.0 0.00 0.00 0.00 97 1012.3
20260508083541 38 226 0.0 0.0 0.00 0.00 0.00 97 1012.5
20260508083038 38 226 0.0 0.0 0.00 0.00 0.00 97 1012.5
20260508082534 38 226 0.0 0.0 0.00 0.00 0.00 97 1012.6
20260508082031 39 225 0.0 0.0 0.00 0.00 0.00 97 1012.5
20260508081529 39 226 0.0 0.0 0.00 0.00 0.00 97 1012.3
20260508081024 39 226 0.0 0.0 0.00 0.00 0.00 97 1012.4
20260508080523 39 225 0.0 0.0 0.00 0.00 0.00 97 1012.6
20260508080020 39 229 0.0 0.0 0.00 0.00 0.00 97 1013.0
20260508075516 39 229 0.0 0.0 0.00 0.00 0.00 97 1012.6
20260508075014 39 229 0.0 0.0 0.00 0.00 0.00 97 1013.0
20260508074512 39 231 0.0 0.0 0.00 0.00 0.00 97 1013.0
20260508074008 39 224 0.0 0.0 0.00 0.00 0.00 97 1012.8
20260508073505 39 224 0.0 0.0 0.00 0.00 0.00 97 1012.6
20260508073003 39 229 0.0 0.0 0.00 0.00 0.00 97 1012.7
20260508072458 39 231 0.0 0.0 0.00 0.00 0.00 97 1012.8
20260508071956 40 232 0.9 1.7 0.00 0.00 0.00 97 1012.7
20260508071454 40 226 0.9 1.7 0.00 0.00 0.00 97 1012.7
20260508070951 40 226 0.0 0.0 0.00 0.00 0.00 97 1012.6
20260508070449 40 231 0.0 0.0 0.00 0.00 0.00 97 1012.7
20260508065947 40 228 0.0 0.0 0.00 0.00 0.00 97 1012.8
20260508065444 40 226 0.0 0.0 0.00 0.00 0.00 97 1012.7
20260508064942 40 227 0.0 0.0 0.00 0.00 0.00 97 1013.2
20260508064439 40 225 0.0 0.0 0.00 0.00 0.00 97 1012.8
20260508063937 40 226 0.0 0.0 0.00 0.00 0.00 97 1013.2
20260508063434 40 226 0.0 0.0 0.00 0.00 0.00 97 1013.0
20260508062932 40 226 0.0 0.0 0.00 0.00 0.00 97 1012.8
20260508062429 40 227 0.0 0.0 0.00 0.00 0.00 97 1012.8
20260508061926 40 218 0.0 0.0 0.00 0.00 0.00 97 1013.0
20260508061424 40 224 0.0 0.0 0.00 0.00 0.00 97 1013.0
20260508060920 40 227 0.0 0.0 0.00 0.00 0.00 97 1013.0
20260508060418 40 228 0.0 0.0 0.00 0.00 0.00 97 1013.1
20260508055913 40 227 0.0 0.0 0.00 0.00 0.00 97 1013.1
20260508055410 41 228 0.0 0.0 0.00 0.00 0.00 97 1013.2
20260508054906 41 228 0.0 0.0 0.00 0.00 0.00 97 1013.1
20260508054404 41 235 0.0 1.7 0.00 0.00 0.00 97 1013.0
20260508053901 41 231 0.0 0.0 0.00 0.00 0.00 97 1013.1
20260508053358 41 227 0.0 0.0 0.00 0.00 0.00 97 1013.1
20260508052855 41 231 0.0 0.0 0.00 0.00 0.00 97 1013.0
20260508052353 41 230 0.0 0.0 0.00 0.00 0.00 97 1013.2
20260508051849 41 229 0.0 0.0 0.00 0.00 0.00 97 1013.2
20260508051345 41 224 0.0 0.0 0.00 0.00 0.00 96 1013.2
20260508050841 41 228 0.0 0.0 0.00 0.00 0.00 96 1013.3
20260508050338 41 239 1.7 1.7 0.00 0.00 0.00 96 1013.0
20260508045834 41 224 0.0 0.0 0.00 0.00 0.00 96 1013.1
20260508045332 42 231 0.9 1.7 0.00 0.00 0.00 96 1013.2
20260508044829 42 231 0.0 0.0 0.00 0.00 0.00 95 1013.1
20260508044325 42 226 0.0 0.0 0.00 0.00 0.00 95 1013.2
20260508043821 42 218 0.0 0.0 0.00 0.00 0.00 95 1013.1
20260508043319 42 225 0.0 0.0 0.00 0.00 0.00 95 1013.3
20260508042815 42 231 0.0 0.0 0.00 0.00 0.00 95 1013.2
20260508042313 42 218 0.0 0.0 0.00 0.00 0.00 95 1013.3
20260508041810 42 227 0.0 0.0 0.00 0.00 0.00 94 1013.3
20260508041306 42 231 1.7 1.7 0.00 0.00 0.00 93 1013.0
20260508040802 43 234 1.7 2.6 0.00 0.00 0.00 93 1013.2
20260508040301 43 222 0.0 1.7 0.05 0.00 0.00 92 1013.0
20260508035757 43 202 1.7 1.7 0.05 0.03 0.03 90 1013.2
20260508035255 43 170 2.6 2.6 0.05 0.02 0.02 89 1013.5
20260508034751 44 220 0.0 1.7 0.09 0.02 0.02 87 1013.6
20260508034248 45 232 1.7 2.6 0.09 0.02 0.02 81 1013.5
20260508033746 46 243 2.6 7.8 0.00 0.00 0.00 72 1013.6
20260508033244 46 233 4.3 7.8 0.00 0.00 0.00 72 1013.6
20260508032741 46 236 1.7 1.7 0.00 0.00 0.00 69 1013.4
20260508032238 46 232 1.7 1.7 0.00 0.00 0.00 67 1013.3
20260508031735 46 231 2.6 2.6 0.00 0.00 0.00 66 1012.8
20260508031231 46 228 0.0 0.0 0.00 0.00 0.00 65 1012.7
20260508030727 46 226 0.0 0.0 0.00 0.00 0.00 65 1012.7
20260508030225 46 226 0.0 0.0 0.00 0.00 0.00 66 1012.8
20260508025721 46 226 0.0 0.0 0.00 0.00 0.00 66 1013.1
20260508025219 47 215 1.7 2.6 0.00 0.00 0.00 67 1013.2
20260508024714 47 224 0.0 0.0 0.00 0.00 0.00 65 1013.1
20260508024212 47 229 0.0 0.0 0.00 0.00 0.00 62 1013.1
20260508023708 48 231 0.0 0.0 0.00 0.00 0.00 64 1013.2
20260508023206 48 223 0.9 2.6 0.00 0.00 0.00 61 1013.1
20260508022701 48 221 0.0 1.7 0.00 0.00 0.00 61 1013.3
20260508022158 48 227 0.0 0.0 0.00 0.00 0.00 60 1013.2
20260508021654 48 239 4.3 6.1 0.00 0.00 0.00 59 1013.2
20260508021150 49 240 1.7 6.1 0.00 0.00 0.00 58 1013.2
20260508020648 49 239 1.7 2.6 0.00 0.00 0.00 59 1013.2
20260508020145 49 293 3.5 6.1 0.00 0.00 0.00 57 1013.2
20260508015643 48 279 3.5 4.3 0.00 0.00 0.00 61 1013.1
20260508015139 49 230 1.7 2.6 0.00 0.00 0.00 57 1013.0
20260508014636 49 226 0.0 1.7 0.00 0.00 0.00 60 1012.8
20260508014132 49 252 1.7 4.3 0.00 0.00 0.00 58 1012.8
20260508013628 49 228 0.0 1.7 0.00 0.00 0.00 58 1013.0
20260508013125 50 225 0.0 1.7 0.00 0.00 0.00 56 1012.8
20260508012623 50 229 0.0 0.0 0.00 0.00 0.00 56 1012.7
20260508012120 50 235 1.7 2.6 0.00 0.00 0.00 54 1012.8